EW9525 Weather Reports


Display with metric or nautical units.
time (UTC)temp
F
wind
direction
speed
MPH
gust
MPH
rain 1hr
in
rain 24hr
in
rain mn
in
humidity
%
barometer
mb
20260505200048 45 346 5.0 8.0 0.00 0.14 0.14 83 1013.7
20260505194545 44 20 5.0 8.0 0.01 0.14 0.14 83 1014.0
20260505193058 45 349 5.0 8.0 0.02 0.14 0.14 83 1013.8
20260505191544 45 333 5.0 8.0 0.02 0.14 0.14 83 1013.9
20260505190045 44 348 6.0 10.0 0.02 0.13 0.13 84 1013.9
20260505184542 44 26 6.0 10.0 0.03 0.13 0.13 85 1013.9
20260505183043 45 1 3.0 6.0 0.04 0.12 0.12 84 1014.0
20260505181546 44 15 5.0 9.0 0.04 0.11 0.11 84 1013.9
20260505180038 45 6 6.0 9.0 0.05 0.11 0.11 86 1013.8
20260505174538 44 16 5.0 8.0 0.06 0.10 0.10 86 1013.9
20260505173037 44 356 3.0 7.0 0.05 0.08 0.08 87 1014.0
20260505171535 44 333 4.0 7.0 0.05 0.07 0.07 84 1013.9
20260505170034 45 309 4.0 9.0 0.04 0.06 0.06 83 1014.0
20260505164531 45 309 5.0 9.0 0.02 0.04 0.04 84 1013.6
20260505163030 45 318 7.0 11.0 0.01 0.03 0.03 83 1013.3
20260505161538 45 327 6.0 10.0 0.00 0.02 0.02 83 1013.3
20260505153021 45 284 4.0 6.0 0.00 0.02 0.02 81 1013.0
20260505151519 46 275 2.0 6.0 0.00 0.02 0.02 82 1013.0
20260505124601 45 293 4.0 9.0 0.00 0.00 0.00 74 1011.2
20260505123102 45 294 5.0 10.0 0.00 0.00 0.00 72 1010.8
20260505121556 45 302 5.0 11.0 0.00 0.00 0.00 73 1010.6
20260505120059 46 297 8.0 12.0 0.00 0.00 0.00 68 1010.4
20260505114551 46 295 7.0 12.0 0.00 0.00 0.00 68 1010.4
20260505113053 46 300 6.0 9.0 0.00 0.00 0.00 68 1010.1
20260505111549 46 321 5.0 8.0 0.00 0.00 0.00 68 1010.2
20260505101550 46 293 3.0 5.0 0.00 0.00 0.00 71 1010.1
20260505100046 46 290 2.0 5.0 0.00 0.00 0.00 74 1009.7
20260505094545 46 294 3.0 5.0 0.00 0.00 0.00 73 1009.7
20260505093044 46 314 2.0 4.0 0.00 0.00 0.00 76 1009.4
20260505091543 46 302 2.0 4.0 0.00 0.00 0.00 76 1009.6
20260505090046 46 305 1.0 2.0 0.00 0.00 0.00 80 1009.7
20260505084551 46 304 0.0 2.0 0.00 0.00 0.00 81 1009.8
20260505083053 46 260 0.0 2.0 0.00 0.00 0.00 72 1009.8
20260505081539 46 212 1.0 3.0 0.00 0.00 0.00 77 1010.2
20260505080045 46 207 1.0 3.0 0.00 0.00 0.00 78 1010.1
20260505074534 47 314 0.0 2.0 0.00 0.00 0.00 71 1009.5
20260505073035 47 329 1.0 4.0 0.00 0.00 0.00 69 1009.3
20260505071543 48 311 3.0 6.0 0.00 0.00 0.00 69 1009.2
20260505070028 48 300 3.0 7.0 0.00 0.00 0.00 69 1009.1
20260505064528 48 316 5.0 9.0 0.00 0.00 0.00 66 1008.9
20260505063023 48 337 5.0 10.0 0.00 0.00 0.00 69 1008.3
20260505061520 48 337 5.0 10.0 0.00 0.00 0.00 73 1008.0
20260505060032 48 339 6.0 9.0 0.00 0.00 0.00 76 1007.7
20260505054517 48 333 5.0 9.0 0.00 0.00 0.00 76 1007.9
20260505053017 49 336 7.0 17.0 0.00 0.00 0.00 76 1007.6
20260505051512 50 15 13.0 19.0 0.00 0.00 0.00 73 1007.0
20260505041505 54 5 13.0 23.0 0.00 0.00 0.00 58 1006.9
20260505040004 56 330 19.0 27.0 0.00 0.00 0.00 51 1006.7
20260505034503 57 359 17.0 24.0 0.00 0.00 0.00 47 1006.5
20260505033002 58 340 16.0 22.0 0.00 0.00 0.00 46 1006.7
20260505031502 58 359 15.0 19.0 0.00 0.00 0.00 46 1006.8
20260505024559 59 312 15.0 27.0 0.00 0.00 0.00 45 1006.0
20260505023058 61 332 20.0 31.0 0.00 0.00 0.00 42 1005.4
20260505021557 63 359 15.0 23.0 0.00 0.00 0.00 37 1005.3
20260505020157 64 5 14.0 21.0 0.00 0.00 0.00 36 1005.4
20260505014605 64 338 12.0 19.0 0.00 0.00 0.00 35 1005.1
20260505013055 65 6 12.0 21.0 0.00 0.00 0.00 34 1004.3
20260505011555 66 351 13.0 21.0 0.00 0.00 0.00 33 1004.0
20260505010056 67 354 17.0 22.0 0.00 0.00 0.00 32 1003.7
20260505004557 68 336 16.0 21.0 0.00 0.00 0.00 31 1003.3
20260505003054 68 338 15.0 24.0 0.00 0.00 0.00 30 1003.0
20260505001553 69 349 18.0 26.0 0.00 0.00 0.00 29 1002.7
20260505000056 70 347 20.0 27.0 0.00 0.00 0.00 29 1002.1
20260504234552 70 355 15.0 25.0 0.00 0.00 0.00 29 1002.0
20260504233052 72 345 20.0 28.0 0.00 0.00 0.00 29 1001.6
20260504231553 73 334 17.0 26.0 0.00 0.00 0.00 28 1001.1
20260504230052 73 354 19.0 26.0 0.00 0.00 0.00 28 1000.9
20260504224549 74 4 19.0 26.0 0.00 0.00 0.00 27 1000.9
20260504223050 75 356 18.0 25.0 0.00 0.00 0.00 26 1000.8
20260504221549 76 11 19.0 26.0 0.00 0.00 0.00 26 1000.8
20260504220048 76 350 19.0 26.0 0.00 0.00 0.00 26 1000.7
20260504214555 77 356 17.0 23.0 0.00 0.00 0.00 26 1000.6
20260504213048 78 342 15.0 23.0 0.00 0.00 0.00 25 1000.6
20260504211547 79 11 15.0 22.0 0.00 0.00 0.00 24 1000.7
20260504210058 79 7 16.0 25.0 0.00 0.00 0.00 24 1000.7
20260504204603 80 336 20.0 27.0 0.00 0.00 0.00 26 1000.7
20260504203059 79 329 18.0 23.0 0.00 0.00 0.00 26 1000.6
20260504201543 80 338 14.0 18.0 0.00 0.00 0.00 23 1001.0